This is the latest recevied weather packets stored in our database for station/object OK3MS-5. If no packets are shown the sender has not sent any weather packets the latest 10 day(s).
| Time | Temp. | Humidity | Pressure | Rain* | Wind** | Luminosity | Snow |
|---|---|---|---|---|---|---|---|
| 1787969106 | 15° C | 99% | 1015.1 hPa | 0 mm | - | 0 W/m² | - |
| 1787968803 | 15° C | 99% | 1014.8 hPa | 0 mm | - | 0 W/m² | - |
| 1787968507 | 15° C | 99% | 1014 hPa | 0 mm | - | 0 W/m² | - |
| 1787968205 | 15° C | 99% | 1013.8 hPa | 0 mm | - | 0 W/m² | - |
| 1787967909 | 15° C | 99% | 1014.3 hPa | 0 mm | - | 0 W/m² | - |
| 1787967603 | 15° C | 99% | 1014.6 hPa | 0.25 mm | - | 0 W/m² | - |
| 1787967307 | 15° C | 99% | 1014.4 hPa | 0.25 mm | - | 0 W/m² | - |
| 1787967002 | 15° C | 99% | 1014.3 hPa | 0.25 mm | - | 0 W/m² | - |
| 1787966704 | 15° C | 99% | 1014.9 hPa | 0.25 mm | - | 0 W/m² | - |
| 1787966404 | 15° C | 99% | 1015 hPa | 0.51 mm | - | 0 W/m² | - |
| 1787966104 | 15° C | 99% | 1015.1 hPa | 0.51 mm | - | 0 W/m² | - |
| 1787965803 | 15° C | 99% | 1015.7 hPa | 0.51 mm | - | 0 W/m² | - |
| 1787965504 | 15° C | 99% | 1015.9 hPa | 0.51 mm | - | 0 W/m² | - |
| 1787965203 | 15° C | 99% | 1015.9 hPa | 0.51 mm | - | 0 W/m² | - |
| 1787964907 | 15° C | 99% | 1016 hPa | 0.51 mm | - | 0 W/m² | - |
| 1787964604 | 15° C | 98% | 1016.1 hPa | 0.51 mm | - | 0 W/m² | - |
| 1787964305 | 15° C | 98% | 1016.2 hPa | 0.51 mm | - | 0 W/m² | - |
| 1787964008 | 15° C | 98% | 1016.1 hPa | 0.25 mm | - | 0 W/m² | - |
| 1787963704 | 15° C | 98% | 1015.8 hPa | 0.25 mm | - | 0 W/m² | - |
| 1787963410 | 15° C | 98% | 1015.8 hPa | 0.25 mm | - | 0 W/m² | - |
| 1787963106 | 15° C | 97% | 1015.8 hPa | 0.25 mm | - | 0 W/m² | - |
| 1787962803 | 15° C | 97% | 1015.8 hPa | 0.25 mm | - | 0 W/m² | - |
| 1787962502 | 15.56° C | 97% | 1015.9 hPa | 0.25 mm | - | 0 W/m² | - |
| 1787962203 | 15.56° C | 96% | 1015.6 hPa | 0.76 mm | - | 0 W/m² | - |
| 1787961903 | 15.56° C | 95% | 1015.7 hPa | 1.52 mm | - | 0 W/m² | - |
* Rain latest hour (hover to see other rain measurements)
** Current wind speed in m/s (hover to see current wind gust speed)